Terminal Aerodrome Forecast
Issued by NWS King Salmon, AK

Home | Current Version | Previous Version | Text Only | Print | Product List | Glossary On
Versions: 1 2 3 4 5 6 7 8 9 10 11 12 13 14 15 16 17 18 19 20 21 22 23 24 25 26 27 28 29 30 31 32 33 34 35 36 37 38 39 40 41 42 43 44 45 46 47
000
FTAK31 PANC 211548 AAC
TAFAKN
TAF AMD
PAKN 211548Z 2116/2212 14003KT 4SM BR SCT002 BKN250
     FM211700 VRB02KT 3SM BR BKN009
     FM211900 22003KT P6SM SCT030 BKN250
     FM212200 20007KT P6SM SCT040 SCT150=

USA.gov is the U.S. government's official web portal to all federal, state and local government web resources and services.